[[{"header":{"parameterUnit":"m.s-1","parameterCategory":1,"la1":30.2991,"la2":30.254,"lo1":-89.0895,"lo2":-89.0444,"dy":0.0017,"dx":0.0017,"nx":28,"ny":28,"refTime":"2024-08-14T09:00:00:Z","depth":0,"parameterNumber":2,"parameterNumberName":"U-component_of_WINDS"},"data":[0,0,0,0,0,0,0,0,0,0,0,0,0,0,0,0,0,0,0,0,0,0,0,0,0,0,0,0,0,0,0,0,0,0,0,0,0,0,0,0,0,0,0,0,0,0,0,0,0,0,0,0,0,0,0,0,0,0,-1.373,-1.3732,0,-1.393,-1.3932,-1.3934,-1.4078,-1.4079,-1.4081,-1.4082,-1.4281,-1.4285,-1.4289,0,0,0,0,0,0,0,0,0,0,0,0,0,-1.3469,-1.3473,-1.373,-1.3732,-1.3735,-1.393,-1.3932,-1.3935,-1.4078,-1.4079,-1.4081,-1.4082,-1.4279,-1.4284,-1.4289,0,0,0,0,0,0,0,0,0,0,0,0,0,-1.3616,-1.3474,-1.3729,-1.383,-1.3841,-1.3929,-1.3932,-1.3936,-1.4078,-1.408,-1.4081,-1.4083,-1.4278,-1.4284,-1.429,-1.4292,0,0,-1.4309,-1.4312,0,0,0,0,0,0,0,0,-1.3608,-1.3626,-1.3813,-1.3823,-1.3836,-1.3981,-1.3913,-1.4055,-1.4077,-1.3988,-1.4082,-1.4084,-1.4179,-1.4194,-1.4227,-1.4302,-1.431,-1.431,-1.4313,-1.4316,-1.4318,0,0,0,0,0,0,0,-1.3598,-1.3618,-1.3809,-1.3815,-1.3829,-1.3864,-1.3887,-1.3941,-1.407,-1.3996,-1.4006,-1.4028,-1.4186,-1.4221,-1.4233,-1.4313,-1.4309,-1.4315,-1.4319,-1.4321,-1.4402,-1.4401,0,0,0,0,0,0,-1.3572,-1.3609,-1.3803,-1.3815,-1.3724,-1.3867,-1.3893,-1.3932,-1.407,-1.4093,-1.4027,-1.4034,-1.4209,-1.4225,-1.424,-1.4253,-1.4316,-1.4322,-1.4325,-1.4404,-1.4402,-1.44,0,0,0,0,0,0,-1.3566,-1.3588,-1.3794,-1.3715,-1.3744,-1.387,-1.3913,-1.3935,-1.3971,-1.4094,-1.4117,-1.4039,-1.4211,-1.4231,-1.4279,-1.4261,-1.4325,-1.433,-1.4406,-1.4403,-1.4401,-1.4276,0,0,0,0,0,0,-1.3558,-1.3585,-1.3587,-1.3714,-1.3748,-1.383,-1.3912,-1.3938,-1.3982,-1.3994,-1.4111,-1.4133,-1.4214,-1.4269,-1.4285,-1.4271,-1.4335,-1.4408,-1.4404,-1.4402,-1.4282,-1.427,-1.4259,0,0,0,0,0,-1.3548,-1.3543,-1.3587,-1.3609,-1.3754,-1.3829,-1.3848,-1.3943,-1.398,-1.3983,-1.4063,-1.4129,-1.4262,-1.4273,-1.4292,-1.4279,-1.4409,-1.4405,-1.4402,-1.4288,-1.4272,-1.4259,0,0,0,0,0,0,-1.3407,-1.3561,-1.3611,-1.3647,-1.3724,-1.3853,-1.386,-1.3924,-1.399,-1.3998,-1.4113,-1.4138,-1.4174,-1.4233,-1.4242,-1.4291,-1.4344,-1.4344,-1.425,-1.4237,-1.4225,-1.4209,-1.434,0,0,0,0,0,-1.3381,-1.3431,-1.3562,-1.3581,-1.3618,-1.3732,-1.3768,-1.3836,-1.3919,-1.3952,-1.4035,-1.4112,-1.4172,-1.4208,-1.427,-1.4293,-1.4321,-1.4295,-1.4283,-1.4273,-1.427,-1.4288,-1.4277,-1.4388,-1.4388,-1.4388,0,0,-1.3326,-1.3416,-1.344,-1.3555,-1.3623,-1.3671,-1.3758,-1.3804,-1.3841,-1.3958,-1.4009,-1.4073,-1.4167,-1.4203,-1.4223,-1.4252,-1.4247,-1.4268,-1.4259,-1.4262,-1.4283,-1.4272,-1.4263,-1.4386,-1.4386,-1.4387,0,0,-1.325,-1.3324,-1.3348,-1.3415,-1.3518,-1.3595,-1.3601,-1.3721,-1.3769,-1.3823,-1.3912,-1.3957,-1.4057,-1.4121,-1.4166,-1.4119,-1.4182,-1.4136,-1.4073,-1.4089,-1.408,-1.4073,-1.4055,-1.4047,-1.4134,-1.4134,-1.4134,0,-1.3167,-1.3244,-1.3351,-1.3394,-1.3442,-1.3555,-1.3579,-1.3639,-1.3755,-1.3785,-1.3818,-1.3948,-1.4019,-1.4072,-1.406,-1.4094,-1.4103,-1.4121,-1.4073,-1.4067,-1.4062,-1.4046,-1.4039,-1.4127,-1.4128,-1.4129,-1.4129,0,-1.3138,-1.319,-1.3197,-1.331,-1.3359,-1.3392,-1.3504,-1.3541,-1.3606,-1.3679,-1.3732,-1.3823,-1.3905,-1.3924,-1.3986,-1.3986,-1.4001,-1.4052,-1.4107,-1.4043,-1.403,-1.4025,-1.4118,-1.412,-1.4122,-1.4124,0,0,-1.2972,-1.3148,-1.3148,-1.3202,-1.3326,-1.3367,-1.3407,-1.349,-1.3519,-1.3597,-1.3632,-1.3717,-1.3766,-1.3817,-1.3889,-1.3903,-1.3859,-1.3953,-1.3957,-1.393,-1.3864,-1.3822,-1.3813,-1.3904,-1.3903,-1.3903,-1.3855,0,-1.2913,-1.299,-1.309,-1.3133,-1.3183,-1.3293,-1.3328,-1.3407,-1.3478,-1.353,-1.3608,-1.3666,-1.3727,-1.3759,-1.3779,-1.386,-1.3847,-1.3866,-1.3935,-1.3936,-1.3904,-1.3807,-1.3762,-1.3712,-1.3851,-1.385,-1.385,0,-1.2852,-1.2927,-1.2976,-1.3098,-1.3123,-1.3152,-1.3238,-1.3287,-1.338,-1.3431,-1.349,-1.3569,-1.3615,-1.3668,-1.3733,-1.3744,-1.3779,-1.3824,-1.3825,-1.3831,-1.3886,-1.3808,-1.3699,-1.369,-1.3843,-1.3844,-1.3844,0,-1.2724,-1.2838,-1.2882,-1.2925,-1.3069,-1.3087,-1.3147,-1.3243,-1.3287,-1.3363,-1.3393,-1.3471,-1.3513,-1.3573,-1.367,-1.3699,-1.3725,-1.3785,-1.3766,-1.3764,-1.3763,-1.376,-1.3654,-1.3791,-1.3791,-1.3791,-1.3791,0,-1.2645,-1.2669,-1.2827,-1.2853,-1.2885,-1.3,-1.3028,-1.3099,-1.3184,-1.3226,-1.3327,-1.3364,-1.3492,-1.3544,-1.3621,-1.3663,-1.3682,-1.3723,-1.3743,-1.3712,-1.3706,-1.3734,-1.3738,-1.3789,-1.379,-1.379,-1.379,0,-1.2504,-1.2611,-1.2666,-1.2801,-1.2835,-1.2852,-1.2967,-1.2997,-1.3076,-1.3128,-1.3147,-1.327,-1.3337,-1.3442,-1.3539,-1.3591,-1.3619,-1.3654,-1.3587,-1.3599,-1.3573,-1.3573,-1.3478,-1.3471,-1.3613,-1.3612,-1.3611,0,-1.2444,-1.2467,-1.2605,-1.2642,-1.27,-1.2757,-1.2804,-1.292,-1.2965,-1.3076,-1.3092,-1.3168,-1.3234,-1.3336,-1.3433,-1.3509,-1.3544,-1.3506,-1.3555,-1.3524,-1.354,-1.3536,-1.3539,-1.3492,-1.349,-1.3488,-1.3487,0,-1.2326,-1.2379,-1.2444,-1.2529,-1.2583,-1.2655,-1.2731,-1.2755,-1.2888,-1.2933,-1.3004,-1.3056,-1.3158,-1.3231,-1.3321,-1.3384,-1.3456,-1.3472,-1.3471,-1.3437,-1.3397,-1.3416,-1.3552,-1.3472,-1.3473,-1.3474,-1.3475,-1.3476,-1.2223,-1.2248,-1.235,-1.242,-1.2491,-1.2561,-1.2596,-1.2682,-1.2744,-1.2837,-1.2903,-1.2969,-1.3065,-1.3194,-1.3253,-1.3307,-1.3339,-1.3338,-1.3337,-1.3334,-1.3322,-1.3393,-1.3324,-1.3325,-1.3325,-1.3326,-1.3326,0,-1.2107,-1.218,-1.2244,-1.2349,-1.2404,-1.2474,-1.2563,-1.2603,-1.2662,-1.2746,-1.2811,-1.2894,-1.2967,-1.3072,-1.3153,-1.3176,-1.3211,-1.3193,-1.319,-1.3203,-1.329,-1.3281,-1.3163,-1.3163,-1.3163,-1.3163,-1.3163,-1.3163,-1.2053,-1.21,-1.2166,-1.2249,-1.2322,-1.239,-1.2435,-1.25,-1.2569,-1.2657,-1.2719,-1.2789,-1.2883,-1.2972,-1.3042,-1.3072,-1.3095,-1.3065,-1.3104,-1.3182,-1.3197,-1.3211,-1.3203,-1.307,-1.307,-1.3013,-1.3012,-1.3012]},{"header":{"parameterUnit":"m.s-1","parameterCategory":1,"la1":30.2991,"la2":30.254,"lo1":-89.0895,"lo2":-89.0444,"dy":0.0017,"dx":0.0017,"nx":28,"ny":28,"refTime":"2024-08-14T09:00:00:Z","depth":0,"parameterNumber":3,"parameterNumberName":"V-component_of_WINDS"},"data":[0,0,0,0,0,0,0,0,0,0,0,0,0,0,0,0,0,0,0,0,0,0,0,0,0,0,0,0,0,0,0,0,0,0,0,0,0,0,0,0,0,0,0,0,0,0,0,0,0,0,0,0,0,0,0,0,0,0,-0.6973,-0.6972,0,-0.6929,-0.6928,-0.6928,-0.6891,-0.6891,-0.689,-0.689,-0.6846,-0.6845,-0.6845,0,0,0,0,0,0,0,0,0,0,0,0,0,-0.7025,-0.7025,-0.6973,-0.6972,-0.6972,-0.6929,-0.6928,-0.6928,-0.6891,-0.6891,-0.689,-0.689,-0.6846,-0.6846,-0.6845,0,0,0,0,0,0,0,0,0,0,0,0,0,-0.6994,-0.7024,-0.6973,-0.6948,-0.6946,-0.6929,-0.6928,-0.6927,-0.6891,-0.6891,-0.689,-0.689,-0.6847,-0.6846,-0.6844,-0.6849,0,0,-0.6841,-0.684,0,0,0,0,0,0,0,0,-0.6996,-0.6992,-0.6952,-0.695,-0.6947,-0.6915,-0.6931,-0.6901,-0.6891,-0.6912,-0.689,-0.6889,-0.687,-0.6866,-0.686,-0.6847,-0.6845,-0.6841,-0.684,-0.6839,-0.6839,0,0,0,0,0,0,0,-0.6998,-0.6994,-0.6955,-0.6952,-0.6949,-0.694,-0.6934,-0.6925,-0.6895,-0.691,-0.6907,-0.6903,-0.6868,-0.6861,-0.6858,-0.6844,-0.6841,-0.684,-0.6839,-0.6838,-0.6832,-0.6833,0,0,0,0,0,0,-0.7004,-0.6996,-0.6957,-0.6954,-0.697,-0.6939,-0.6933,-0.6926,-0.6895,-0.6889,-0.6903,-0.6901,-0.6863,-0.686,-0.6857,-0.686,-0.6839,-0.6838,-0.6838,-0.6832,-0.6833,-0.6833,0,0,0,0,0,0,-0.7005,-0.7001,-0.6958,-0.6974,-0.6968,-0.6939,-0.693,-0.6925,-0.6918,-0.6889,-0.6884,-0.6901,-0.6863,-0.6858,-0.6851,-0.6858,-0.6838,-0.6837,-0.6831,-0.6832,-0.6833,-0.6866,0,0,0,0,0,0,-0.7007,-0.7002,-0.7003,-0.6975,-0.6967,-0.6954,-0.6931,-0.6925,-0.6916,-0.6913,-0.6886,-0.6881,-0.6862,-0.6853,-0.685,-0.6856,-0.6836,-0.6831,-0.6832,-0.6833,-0.6865,-0.6868,-0.6871,0,0,0,0,0,-0.7009,-0.7015,-0.7003,-0.6999,-0.6969,-0.6954,-0.695,-0.6927,-0.6917,-0.6918,-0.6899,-0.6882,-0.6857,-0.6852,-0.6849,-0.6854,-0.683,-0.6831,-0.6833,-0.6863,-0.6868,-0.6871,0,0,0,0,0,0,-0.7046,-0.7011,-0.6998,-0.6994,-0.6977,-0.6948,-0.6949,-0.6933,-0.6919,-0.6917,-0.6889,-0.6883,-0.6879,-0.6866,-0.6861,-0.6857,-0.6841,-0.6842,-0.6866,-0.687,-0.6873,-0.6877,-0.6835,0,0,0,0,0,-0.7053,-0.7044,-0.7014,-0.7014,-0.7006,-0.6979,-0.6972,-0.6955,-0.6937,-0.693,-0.6911,-0.6894,-0.6882,-0.6875,-0.6863,-0.6862,-0.6856,-0.6864,-0.6867,-0.687,-0.6871,-0.687,-0.6873,-0.6837,-0.6837,-0.6837,0,0,-0.7069,-0.7049,-0.7045,-0.702,-0.7006,-0.6997,-0.6973,-0.6965,-0.6959,-0.6929,-0.6921,-0.6906,-0.6885,-0.6881,-0.6878,-0.687,-0.688,-0.6872,-0.6874,-0.6874,-0.6872,-0.6875,-0.6878,-0.6838,-0.6838,-0.6838,0,0,-0.7094,-0.7077,-0.7075,-0.706,-0.7037,-0.7019,-0.7019,-0.6991,-0.698,-0.6971,-0.6948,-0.694,-0.692,-0.6906,-0.6897,-0.6914,-0.6898,-0.6911,-0.6929,-0.6928,-0.6931,-0.6934,-0.694,-0.6943,-0.6912,-0.6912,-0.6912,0,-0.7116,-0.7102,-0.7076,-0.7069,-0.7059,-0.703,-0.7028,-0.7015,-0.699,-0.6984,-0.6974,-0.6948,-0.6932,-0.6925,-0.6929,-0.6922,-0.692,-0.6915,-0.6933,-0.6935,-0.6937,-0.6943,-0.6945,-0.6914,-0.6914,-0.6913,-0.6913,0,-0.7131,-0.7122,-0.7123,-0.7098,-0.7088,-0.7084,-0.7057,-0.705,-0.7034,-0.7017,-0.7008,-0.6987,-0.697,-0.6966,-0.6951,-0.6956,-0.6952,-0.6938,-0.6922,-0.6942,-0.6948,-0.695,-0.6916,-0.6916,-0.6915,-0.6915,0,0,-0.718,-0.714,-0.7141,-0.7129,-0.7101,-0.7093,-0.7087,-0.7069,-0.7064,-0.7047,-0.7041,-0.7024,-0.7011,-0.7,-0.6983,-0.6981,-0.6997,-0.6967,-0.6967,-0.6974,-0.7002,-0.7013,-0.7016,-0.6985,-0.6986,-0.6986,-0.7004,0,-0.7201,-0.7188,-0.7163,-0.7159,-0.7149,-0.7121,-0.7116,-0.7098,-0.7081,-0.7071,-0.7052,-0.7041,-0.7024,-0.7017,-0.7015,-0.6996,-0.7002,-0.6994,-0.698,-0.698,-0.6988,-0.7019,-0.7031,-0.7049,-0.7006,-0.7006,-0.7006,0,-0.7224,-0.7208,-0.7202,-0.7174,-0.7169,-0.7164,-0.7146,-0.7136,-0.7115,-0.7103,-0.709,-0.7071,-0.7062,-0.7047,-0.7035,-0.703,-0.7023,-0.7013,-0.7013,-0.7012,-0.6996,-0.702,-0.7054,-0.7058,-0.7009,-0.7009,-0.7009,0,-0.726,-0.7237,-0.7231,-0.7221,-0.7188,-0.7186,-0.7172,-0.715,-0.7141,-0.7124,-0.7118,-0.7101,-0.7093,-0.708,-0.7056,-0.7047,-0.7047,-0.703,-0.7038,-0.7038,-0.704,-0.7041,-0.7076,-0.7034,-0.7034,-0.7034,-0.7034,0,-0.7287,-0.7285,-0.7247,-0.7243,-0.7239,-0.7211,-0.7208,-0.7191,-0.7172,-0.7164,-0.7138,-0.7132,-0.71,-0.709,-0.7071,-0.7065,-0.7061,-0.7051,-0.7046,-0.7054,-0.7055,-0.705,-0.7049,-0.7034,-0.7034,-0.7034,-0.7034,0,-0.7328,-0.7302,-0.7294,-0.7262,-0.7254,-0.7253,-0.7226,-0.7221,-0.7202,-0.7193,-0.7189,-0.716,-0.7146,-0.712,-0.71,-0.7087,-0.7085,-0.7076,-0.7092,-0.709,-0.7099,-0.7099,-0.7133,-0.7136,-0.7091,-0.7092,-0.7092,0,-0.7348,-0.7345,-0.7313,-0.7306,-0.7293,-0.7282,-0.7272,-0.7243,-0.7234,-0.7209,-0.7207,-0.7191,-0.7177,-0.7157,-0.7134,-0.7118,-0.7109,-0.7121,-0.7106,-0.7114,-0.711,-0.7111,-0.7111,-0.7126,-0.7126,-0.7127,-0.7127,0,-0.7385,-0.7372,-0.7359,-0.7341,-0.7329,-0.7314,-0.7297,-0.7293,-0.726,-0.7251,-0.7236,-0.7225,-0.7204,-0.7189,-0.7169,-0.7154,-0.7136,-0.7132,-0.7133,-0.7142,-0.7152,-0.7147,-0.7103,-0.7132,-0.7131,-0.7131,-0.7131,-0.713,-0.7417,-0.7413,-0.739,-0.7376,-0.7359,-0.7344,-0.7338,-0.7317,-0.7305,-0.7285,-0.7268,-0.7255,-0.7233,-0.7204,-0.7191,-0.718,-0.7171,-0.7173,-0.7173,-0.7175,-0.7178,-0.7152,-0.7176,-0.7176,-0.7176,-0.7176,-0.7176,0,-0.7454,-0.7437,-0.7424,-0.7401,-0.7389,-0.7371,-0.7351,-0.7343,-0.7332,-0.7312,-0.7299,-0.7282,-0.7267,-0.7241,-0.7224,-0.722,-0.7211,-0.7217,-0.7218,-0.7215,-0.7187,-0.7188,-0.7225,-0.7225,-0.7225,-0.7225,-0.7225,-0.7225,-0.7472,-0.7464,-0.7448,-0.7433,-0.7416,-0.7403,-0.7393,-0.7378,-0.7363,-0.7345,-0.7332,-0.7315,-0.7293,-0.7274,-0.7259,-0.7252,-0.7247,-0.7256,-0.7247,-0.7221,-0.7217,-0.7212,-0.7214,-0.7255,-0.7255,-0.7276,-0.7276,-0.7276]}]]